Starlink 30122

operational
NORAD ID: 56688 Int'l Des: 2023-067 Owner: SPXS Country: US Constellation: starlink
LEOCIRCULAR

Über Starlink 30122

Beschreibung wird geladen...

Live-Position

3D-Globus wird geladen...

Nächste Überflüge

Höhenverlauf

Altitude vs Time

uPlot chart will show altitude changes over time

Zweizeiliger Elementsatz

1 56688U 23067A 25258.38782067 .00000306 00000-0 37743-4 0 9991
2 56688 43.0036 147.5222 0001036 270.6704 89.4019 15.02537830129355
Epoch: 15. Sept. 2025 • Age: 24 hours

Aktueller Status

Höhe 570.5 km
Geschwindigkeit 7.58 km/s
Subsatellitenpunkt -40.20°S, 51.61°W
Startdatum 19. Mai 2023
Alter 2.3 years
Typ internet

Technische Details

Klassifizierung Payload
Masse 730.00 kg
Trockenmasse 700.00 kg
Gesamtmasse 730.00 kg
Länge 0.30 m
Durchmesser 4.10 m
Spannweite 29.00 m
Form Box + pan
Hersteller SPXS
Bus-Typ Starlink V2M
Phasenstatus In Orbit
Besitzer/Staat SPXS/US

Große Konstellationen

Loading constellations...